sat.trackr.live / text

‹ back to catalog

EARTHCARE

NORAD 59908 · 2024-101A

PAYLOAD ACTIVE UNKNOWN

§ Identity

Operator
Country
ESA
Launch date
2024-05-28
Launch site
AFWTR
Launch vehicle
Mass (kg)
RCS (m²)

External: N2YO · Heavens-Above · Gunter

§ Orbital elements

Epoch: 2026-09-22T14:42:01.934496Z

Period
92.48 min
Inclination
97.0007°
Eccentricity
0.0001751
Mean motion
15.57147966 rev/d
Perigee alt
394.7 km
Apogee alt
397.1 km
Semi-major
6,774.1 km
B*
1.1963e-4
RAAN
31.0419°
Arg perigee
99.7590°
Mean anomaly
260.3864°
Rev number
13,172

§ Raw data

EARTHCARE1 59908U 24101A   26265.61252239  .00008582  00000+0  11963-3 0  99952 59908  97.0007  31.0419 0001751  99.7590 260.3864 15.57147966131721

JSON: /api/v1/satellites/59908 · /tle

For live sub-satellite position, see the globe view (requires WebGL).

§ Visibility from observer

Set your observer location to see the next 7 days of passes ≥ 10°. The values pass through the URL so the page stays shareable.

No JS? Fill the form by hand. The geolocation button needs JavaScript.